| time (UTC) | temp F | wind direction | speed MPH | gust MPH | rain 1hr in | rain 24hr in | rain mn in | humidity % | barometer mb |
| 20260505041528 | 68 | 328 | 8.0 | 0.0 | 0.00 | 0.00 | 0.00 | 52 | 1015.5 |
| 20260505041035 | 68 | 299 | 7.0 | 0.0 | 0.00 | 0.00 | 0.00 | 51 | 1015.5 |
| 20260505040550 | 68 | 319 | 7.0 | 0.0 | 0.00 | 0.00 | 0.00 | 52 | 1015.5 |
| 20260505040027 | 68 | 308 | 6.0 | 0.0 | 0.00 | 0.00 | 0.00 | 50 | 1015.5 |
| 20260505035535 | 68 | 288 | 5.0 | 0.0 | 0.00 | 0.00 | 0.00 | 51 | 1015.5 |
| 20260505035035 | 68 | 306 | 6.0 | 0.0 | 0.00 | 0.00 | 0.00 | 51 | 1015.7 |
| 20260505034550 | 67 | 333 | 6.0 | 0.0 | 0.00 | 0.00 | 0.00 | 51 | 1015.7 |
| 20260505034032 | 68 | 340 | 6.0 | 0.0 | 0.00 | 0.00 | 0.00 | 50 | 1015.7 |
| 20260505033537 | 68 | 358 | 6.0 | 0.0 | 0.00 | 0.00 | 0.00 | 51 | 1015.9 |
| 20260505033044 | 68 | 332 | 6.0 | 0.0 | 0.00 | 0.00 | 0.00 | 50 | 1015.9 |
| 20260505032530 | 68 | 314 | 7.0 | 0.0 | 0.00 | 0.00 | 0.00 | 50 | 1015.9 |
| 20260505032036 | 68 | 304 | 6.0 | 0.0 | 0.00 | 0.00 | 0.00 | 49 | 1015.9 |
| 20260505031603 | 69 | 297 | 6.0 | 0.0 | 0.00 | 0.00 | 0.00 | 49 | 1015.9 |
| 20260505031044 | 69 | 278 | 6.0 | 0.0 | 0.00 | 0.00 | 0.00 | 49 | 1015.9 |
| 20260505030529 | 69 | 293 | 6.0 | 0.0 | 0.00 | 0.00 | 0.00 | 48 | 1016.0 |
| 20260505030034 | 69 | 342 | 5.0 | 0.0 | 0.00 | 0.00 | 0.00 | 50 | 1016.0 |
| 20260505025540 | 70 | 319 | 4.0 | 0.0 | 0.00 | 0.00 | 0.00 | 48 | 1016.0 |
| 20260505025044 | 70 | 354 | 3.0 | 0.0 | 0.00 | 0.00 | 0.00 | 46 | 1016.3 |
| 20260505024527 | 70 | 116 | 3.0 | 0.0 | 0.00 | 0.00 | 0.00 | 43 | 1016.3 |
| 20260505024031 | 70 | 141 | 4.0 | 0.0 | 0.00 | 0.00 | 0.00 | 43 | 1016.3 |
| 20260505023532 | 70 | 76 | 4.0 | 0.0 | 0.00 | 0.00 | 0.00 | 44 | 1016.3 |
| 20260505023047 | 70 | 142 | 4.0 | 0.0 | 0.00 | 0.00 | 0.00 | 44 | 1016.3 |
| 20260505022555 | 70 | 110 | 4.0 | 0.0 | 0.00 | 0.00 | 0.00 | 44 | 1016.3 |
| 20260505022033 | 70 | 247 | 4.0 | 0.0 | 0.00 | 0.00 | 0.00 | 43 | 1016.4 |
| 20260505021601 | 70 | 160 | 2.0 | 0.0 | 0.00 | 0.00 | 0.00 | 44 | 1016.4 |
| 20260505021046 | 70 | 61 | 3.0 | 0.0 | 0.00 | 0.00 | 0.00 | 43 | 1016.4 |
| 20260505020551 | 70 | 150 | 3.0 | 0.0 | 0.00 | 0.00 | 0.00 | 42 | 1016.5 |
| 20260505020036 | 69 | 191 | 2.0 | 0.0 | 0.00 | 0.00 | 0.00 | 44 | 1016.5 |
| 20260505015535 | 69 | 130 | 3.0 | 0.0 | 0.00 | 0.00 | 0.00 | 43 | 1016.5 |
| 20260505015040 | 69 | 90 | 4.0 | 0.0 | 0.00 | 0.00 | 0.00 | 43 | 1016.6 |
| 20260505014529 | 69 | 107 | 4.0 | 0.0 | 0.00 | 0.00 | 0.00 | 44 | 1016.6 |
| 20260505014037 | 69 | 150 | 4.0 | 0.0 | 0.00 | 0.00 | 0.00 | 43 | 1016.6 |
| 20260505013537 | 69 | 181 | 4.0 | 0.0 | 0.00 | 0.00 | 0.00 | 44 | 1016.7 |
| 20260505013051 | 68 | 83 | 5.0 | 0.0 | 0.00 | 0.00 | 0.00 | 44 | 1016.7 |
| 20260505012529 | 69 | 115 | 4.0 | 0.0 | 0.00 | 0.00 | 0.00 | 43 | 1016.7 |
| 20260505012029 | 68 | 162 | 4.0 | 0.0 | 0.00 | 0.00 | 0.00 | 45 | 1016.9 |
| 20260505011531 | 68 | 170 | 5.0 | 0.0 | 0.00 | 0.00 | 0.00 | 43 | 1016.9 |
| 20260505011045 | 68 | 173 | 4.0 | 0.0 | 0.00 | 0.00 | 0.00 | 43 | 1016.9 |
| 20260505010546 | 68 | 76 | 3.0 | 0.0 | 0.00 | 0.00 | 0.00 | 44 | 1016.7 |
| 20260505010033 | 68 | 112 | 3.0 | 0.0 | 0.00 | 0.00 | 0.00 | 43 | 1016.7 |
| 20260505005537 | 68 | 360 | 2.0 | 0.0 | 0.00 | 0.00 | 0.00 | 45 | 1016.7 |
| 20260505005038 | 67 | 101 | 2.0 | 0.0 | 0.00 | 0.00 | 0.00 | 44 | 1016.5 |
| 20260505004604 | 67 | 148 | 3.0 | 0.0 | 0.00 | 0.00 | 0.00 | 43 | 1016.5 |
| 20260505004104 | 67 | 172 | 4.0 | 0.0 | 0.00 | 0.00 | 0.00 | 44 | 1016.5 |
| 20260505003544 | 67 | 14 | 3.0 | 0.0 | 0.00 | 0.00 | 0.00 | 50 | 1016.6 |
| 20260505003028 | 66 | 142 | 2.0 | 0.0 | 0.00 | 0.00 | 0.00 | 46 | 1016.6 |
| 20260505002534 | 67 | 130 | 1.0 | 0.0 | 0.00 | 0.00 | 0.00 | 46 | 1016.6 |
| 20260505002057 | 67 | 60 | 1.0 | 0.0 | 0.00 | 0.00 | 0.00 | 47 | 1016.5 |
| 20260505001601 | 67 | 3 | 1.0 | 0.0 | 0.00 | 0.00 | 0.00 | 48 | 1016.5 |
| 20260505001046 | 67 | 60 | 0.0 | 0.0 | 0.00 | 0.00 | 0.00 | 47 | 1016.5 |
| 20260505000544 | 66 | 23 | 0.0 | 0.0 | 0.00 | 0.00 | 0.00 | 47 | 1016.5 |
| 20260505000027 | 66 | 23 | 0.0 | 0.0 | 0.00 | 0.00 | 0.00 | 48 | 1016.5 |
| 20260504235530 | 65 | 23 | 0.0 | 0.0 | 0.00 | 0.00 | 0.00 | 50 | 1016.5 |
| 20260504235032 | 64 | 23 | 0.0 | 0.0 | 0.00 | 0.00 | 0.00 | 51 | 1016.5 |
| 20260504234544 | 64 | 23 | 0.0 | 0.0 | 0.00 | 0.00 | 0.00 | 51 | 1016.5 |
| 20260504234050 | 64 | 129 | 0.0 | 0.0 | 0.00 | 0.00 | 0.00 | 55 | 1016.5 |
| 20260504233552 | 64 | 129 | 0.0 | 0.0 | 0.00 | 0.00 | 0.00 | 60 | 1016.6 |
| 20260504233033 | 63 | 129 | 0.0 | 0.0 | 0.00 | 0.00 | 0.00 | 60 | 1016.5 |
| 20260504232535 | 63 | 129 | 0.0 | 0.0 | 0.00 | 0.00 | 0.00 | 60 | 1016.5 |
| 20260504232036 | 62 | 129 | 0.0 | 0.0 | 0.00 | 0.00 | 0.00 | 63 | 1016.6 |
| 20260504231539 | 62 | 129 | 0.0 | 0.0 | 0.00 | 0.00 | 0.00 | 64 | 1016.6 |
| 20260504231043 | 61 | 129 | 0.0 | 0.0 | 0.00 | 0.00 | 0.00 | 68 | 1016.6 |
| 20260504230545 | 60 | 129 | 0.0 | 0.0 | 0.00 | 0.00 | 0.00 | 67 | 1016.6 |
| 20260504230049 | 60 | 129 | 0.0 | 0.0 | 0.00 | 0.00 | 0.00 | 69 | 1016.6 |
| 20260504225529 | 59 | 129 | 0.0 | 0.0 | 0.00 | 0.00 | 0.00 | 71 | 1016.6 |
| 20260504225029 | 58 | 131 | 0.0 | 0.0 | 0.00 | 0.00 | 0.00 | 73 | 1016.5 |
| 20260504224534 | 58 | 131 | 1.0 | 0.0 | 0.00 | 0.00 | 0.00 | 75 | 1016.5 |
| 20260504224038 | 57 | 131 | 2.0 | 0.0 | 0.00 | 0.00 | 0.00 | 77 | 1016.5 |
| 20260504223538 | 57 | 131 | 2.0 | 0.0 | 0.00 | 0.00 | 0.00 | 78 | 1016.4 |
| 20260504223050 | 56 | 127 | 2.0 | 0.0 | 0.00 | 0.00 | 0.00 | 80 | 1016.4 |
| 20260504222554 | 56 | 128 | 2.0 | 0.0 | 0.00 | 0.00 | 0.00 | 81 | 1016.4 |
| 20260504222051 | 55 | 136 | 2.0 | 0.0 | 0.00 | 0.00 | 0.00 | 81 | 1016.5 |
| 20260504221556 | 54 | 136 | 3.0 | 0.0 | 0.00 | 0.00 | 0.00 | 82 | 1016.5 |
| 20260504221040 | 54 | 140 | 3.0 | 0.0 | 0.00 | 0.00 | 0.00 | 83 | 1016.5 |
| 20260504220541 | 54 | 139 | 2.0 | 0.0 | 0.00 | 0.00 | 0.00 | 84 | 1016.1 |
| 20260504220027 | 53 | 131 | 2.0 | 0.0 | 0.00 | 0.00 | 0.00 | 86 | 1016.1 |
| 20260504215554 | 53 | 187 | 1.0 | 0.0 | 0.00 | 0.00 | 0.00 | 88 | 1016.1 |
| 20260504215033 | 52 | 188 | 0.0 | 0.0 | 0.00 | 0.00 | 0.00 | 88 | 1016.1 |
| 20260504214534 | 52 | 188 | 1.0 | 0.0 | 0.00 | 0.00 | 0.00 | 90 | 1016.1 |
| 20260504214038 | 52 | 188 | 1.0 | 0.0 | 0.00 | 0.00 | 0.00 | 90 | 1016.1 |
| 20260504213538 | 51 | 188 | 1.0 | 0.0 | 0.00 | 0.00 | 0.00 | 90 | 1015.9 |
| 20260504213042 | 51 | 188 | 1.0 | 0.0 | 0.00 | 0.00 | 0.00 | 91 | 1015.9 |
| 20260504212529 | 50 | 188 | 1.0 | 0.0 | 0.00 | 0.00 | 0.00 | 92 | 1015.9 |
| 20260504212029 | 50 | 188 | 2.0 | 0.0 | 0.00 | 0.00 | 0.00 | 92 | 1015.6 |
| 20260504211532 | 50 | 163 | 3.0 | 0.0 | 0.00 | 0.00 | 0.00 | 92 | 1015.6 |
| 20260504211031 | 50 | 193 | 2.0 | 0.0 | 0.00 | 0.00 | 0.00 | 92 | 1015.6 |
| 20260504210534 | 50 | 141 | 1.0 | 0.0 | 0.00 | 0.00 | 0.00 | 93 | 1015.8 |
| 20260504210048 | 49 | 180 | 1.0 | 0.0 | 0.00 | 0.00 | 0.00 | 93 | 1015.8 |
| 20260504205552 | 49 | 180 | 1.0 | 0.0 | 0.00 | 0.00 | 0.00 | 93 | 1015.8 |
| 20260504205035 | 49 | 180 | 1.0 | 0.0 | 0.00 | 0.00 | 0.00 | 93 | 1015.8 |
| 20260504204540 | 49 | 181 | 1.0 | 0.0 | 0.00 | 0.00 | 0.00 | 93 | 1015.8 |
| 20260504204106 | 49 | 180 | 0.0 | 0.0 | 0.00 | 0.00 | 0.00 | 93 | 1015.8 |
| 20260504203541 | 49 | 180 | 0.0 | 0.0 | 0.00 | 0.00 | 0.00 | 93 | 1015.7 |
| 20260504203047 | 49 | 180 | 0.0 | 0.0 | 0.00 | 0.00 | 0.00 | 93 | 1015.7 |
| 20260504202533 | 49 | 180 | 0.0 | 0.0 | 0.00 | 0.00 | 0.00 | 93 | 1015.7 |
| 20260504202035 | 49 | 181 | 0.0 | 0.0 | 0.00 | 0.00 | 0.00 | 92 | 1015.5 |
| 20260504201543 | 50 | 180 | 0.0 | 0.0 | 0.00 | 0.00 | 0.00 | 92 | 1015.5 |
| 20260504201050 | 50 | 180 | 0.0 | 0.0 | 0.00 | 0.00 | 0.00 | 92 | 1015.5 |
| 20260504200531 | 50 | 180 | 0.0 | 0.0 | 0.00 | 0.00 | 0.00 | 92 | 1015.7 |
| 20260504200038 | 50 | 180 | 0.0 | 0.0 | 0.00 | 0.00 | 0.00 | 92 | 1015.7 |
| 20260504195540 | 50 | 180 | 0.0 | 0.0 | 0.00 | 0.00 | 0.00 | 92 | 1015.7 |
| 20260504195044 | 50 | 181 | 1.0 | 0.0 | 0.00 | 0.00 | 0.00 | 92 | 1015.5 |
| 20260504194530 | 50 | 180 | 1.0 | 0.0 | 0.00 | 0.00 | 0.00 | 92 | 1015.5 |
| 20260504194058 | 50 | 180 | 2.0 | 0.0 | 0.00 | 0.00 | 0.00 | 92 | 1015.5 |
| 20260504193540 | 50 | 181 | 2.0 | 0.0 | 0.00 | 0.00 | 0.00 | 92 | 1015.2 |
| 20260504193026 | 50 | 207 | 2.0 | 0.0 | 0.00 | 0.00 | 0.00 | 92 | 1015.2 |
| 20260504192533 | 50 | 207 | 1.0 | 0.0 | 0.00 | 0.00 | 0.00 | 92 | 1015.2 |
| 20260504192032 | 50 | 207 | 1.0 | 0.0 | 0.00 | 0.00 | 0.00 | 92 | 1015.2 |
| 20260504191538 | 50 | 207 | 1.0 | 0.0 | 0.00 | 0.00 | 0.00 | 91 | 1015.2 |
| 20260504191043 | 50 | 207 | 1.0 | 0.0 | 0.00 | 0.00 | 0.00 | 91 | 1015.2 |
| 20260504190548 | 51 | 207 | 1.0 | 0.0 | 0.00 | 0.00 | 0.00 | 91 | 1015.5 |
| 20260504190034 | 51 | 207 | 1.0 | 0.0 | 0.00 | 0.00 | 0.00 | 91 | 1015.5 |
| 20260504185541 | 51 | 207 | 1.0 | 0.0 | 0.00 | 0.00 | 0.00 | 91 | 1015.5 |
| 20260504185052 | 51 | 207 | 1.0 | 0.0 | 0.00 | 0.00 | 0.00 | 92 | 1015.2 |
| 20260504184530 | 51 | 207 | 1.0 | 0.0 | 0.00 | 0.00 | 0.00 | 92 | 1015.2 |
| 20260504184033 | 51 | 146 | 2.0 | 0.0 | 0.00 | 0.00 | 0.00 | 91 | 1015.2 |
| 20260504183535 | 51 | 146 | 3.0 | 0.0 | 0.00 | 0.00 | 0.00 | 91 | 1015.2 |
| 20260504183051 | 51 | 146 | 3.0 | 0.0 | 0.00 | 0.00 | 0.00 | 91 | 1015.2 |
| 20260504182553 | 51 | 134 | 2.0 | 0.0 | 0.00 | 0.00 | 0.00 | 90 | 1015.2 |
| 20260504182026 | 51 | 162 | 2.0 | 0.0 | 0.00 | 0.00 | 0.00 | 91 | 1014.9 |
| 20260504181542 | 51 | 125 | 2.0 | 0.0 | 0.00 | 0.00 | 0.00 | 91 | 1014.9 |
| 20260504181047 | 51 | 201 | 2.0 | 0.0 | 0.00 | 0.00 | 0.00 | 91 | 1014.9 |
| 20260504180546 | 51 | 201 | 4.0 | 0.0 | 0.00 | 0.00 | 0.00 | 91 | 1014.9 |
| 20260504180033 | 51 | 227 | 4.0 | 0.0 | 0.00 | 0.00 | 0.00 | 90 | 1014.9 |
| 20260504175538 | 52 | 236 | 2.0 | 0.0 | 0.00 | 0.00 | 0.00 | 90 | 1014.9 |
| 20260504175058 | 52 | 222 | 0.0 | 0.0 | 0.00 | 0.00 | 0.00 | 89 | 1015.0 |
| 20260504174544 | 52 | 223 | 0.0 | 0.0 | 0.00 | 0.00 | 0.00 | 89 | 1015.0 |
| 20260504174029 | 52 | 223 | 0.0 | 0.0 | 0.00 | 0.00 | 0.00 | 88 | 1015.0 |
| 20260504173534 | 52 | 222 | 0.0 | 0.0 | 0.00 | 0.00 | 0.00 | 88 | 1015.0 |
| 20260504173036 | 52 | 222 | 1.0 | 0.0 | 0.00 | 0.00 | 0.00 | 88 | 1015.0 |
| 20260504172543 | 52 | 222 | 1.0 | 0.0 | 0.00 | 0.00 | 0.00 | 88 | 1015.0 |
| 20260504172026 | 52 | 222 | 0.0 | 0.0 | 0.00 | 0.00 | 0.00 | 88 | 1015.0 |
| 20260504171532 | 53 | 222 | 1.0 | 0.0 | 0.00 | 0.00 | 0.00 | 87 | 1015.0 |
| 20260504171037 | 53 | 222 | 1.0 | 0.0 | 0.00 | 0.00 | 0.00 | 86 | 1015.0 |
| 20260504170540 | 53 | 222 | 1.0 | 0.0 | 0.00 | 0.00 | 0.00 | 85 | 1014.9 |
| 20260504151052 | 56 | 264 | 0.0 | 0.0 | 0.00 | 0.00 | 0.00 | 77 | 1015.0 |
| 20260504150554 | 56 | 360 | 0.0 | 0.0 | 0.00 | 0.00 | 0.00 | 75 | 1014.9 |
| 20260504141034 | 59 | 360 | 0.0 | 0.0 | 0.00 | 0.00 | 0.00 | 62 | 1014.8 |
| 20260504140538 | 59 | 360 | 0.0 | 0.0 | 0.00 | 0.00 | 0.00 | 62 | 1014.4 |
| 20260504130551 | 60 | 1 | 1.0 | 0.0 | 0.00 | 0.00 | 0.00 | 59 | 1013.9 |
| 20260504110529 | 63 | 53 | 10.0 | 0.0 | 0.00 | 0.00 | 0.00 | 41 | 1013.3 |
| 20260504100537 | 63 | 326 | 9.0 | 0.0 | 0.00 | 0.00 | 0.00 | 40 | 1012.7 |
| 20260504081608 | 64 | 323 | 12.0 | 0.0 | 0.00 | 0.00 | 0.00 | 42 | 1012.0 |
| 20260504081051 | 64 | 323 | 13.0 | 0.0 | 0.00 | 0.00 | 0.00 | 41 | 1012.0 |
| 20260504080557 | 64 | 310 | 12.0 | 0.0 | 0.00 | 0.00 | 0.00 | 41 | 1011.9 |
| 20260504080104 | 64 | 336 | 13.0 | 0.0 | 0.00 | 0.00 | 0.00 | 43 | 1011.9 |
| 20260504050604 | 63 | 307 | 17.0 | 0.0 | 0.00 | 0.00 | 0.00 | 52 | 1012.1 |